www.pogodaiklimat.ru

Погода и климат >> Архив погоды >> Филиппины >> Диполог


ПОГОДА в Дипологе

  • Прогноз погоды в Дипологе
  • Монитор погоды в Дипологе

АРХИВ ПОГОДЫ в Дипологе

Время (UTC), дата Ветер
(напр.,м/с)
 
Видим.   Явления Облачность Т
(С)
Тd
(С)
f
(%)
Тe
(С)
Тes
(С)
Комфортность P
(гПа)
Po
(гПа)
Тmin
(С)
Tmax
(С)
R
(мм)
R24
(мм)
S
(см)
18 18.06 ЮВ 1 12 км гроза без осадков 9/3 500 м
[Cb cap Ac As]
+26.4 +24.8 91 +38 +38 очень
душно
1008.5 1008.1
21 18.06 В 1 9000 м в посл. час ливневой дождь {гроза} 10/4 540 м
[Cu med, cong Ac As]
+26.0 +24.9 94 +37 +37 очень
душно
1009.1 1008.7 4
00 19.06 З 1 18 км в посл. час ливневой дождь {гроза} 6/3 540 м
[Cu med, cong Ac As]
+28.2 +24.5 80 +40 +44 очень
душно
1010.0 1009.6 +25.5 5
03 19.06 С 2 18 км мгла {туман} 5/4 540 м
[Cu med, cong Ac As Ci fib]
+32.2 +26.0 70 +48 +59 опасность
перегрева
1009.4 1009.0
06 19.06 Ю 1 16 км в посл. час гроза {ливн. осадки} 6/5 500 м
[Cb cap Ac As]
+31.2 +26.0 74 +47 +54 опасность
перегрева
1007.0 1006.6 0.6
09 19.06 З 2 18 км мгла {туман} 4/3 500 м
[Cb cap Ac As Ci fib]
+32.2 +25.7 69 +47 +48 опасность
перегрева
1006.2 1005.8
12 19.06 Ю 1 14 км {туман} 8/1 540 м
[Cu med, cong Ac As]
+28.2 +24.5 80 +40 +40 очень
душно
1008.2 1007.8 +33.7
15 19.06 Ю 1 16 км 5/1 540 м
[Cu med, cong Ac As]
+26.4 +24.5 89 +37 +37 очень
душно
1008.8 1008.4
18 19.06 Ю 1 12 км зарница 9/3 500 м
[Cb cap Cs]
+25.8 +24.5 93 +36 +36 очень
душно
1008.1 1007.7
21 19.06 В 1 12 км 9/3 540 м
[Cu med, cong Ac As]
+25.6 +24.5 94 +36 +36 очень
душно
1008.1 1007.7
00 20.06 Ю 1 16 км мгла {туман} 9/3 540 м
[Cu med, cong Ac As]
+28.0 +25.1 84 +40 +43 очень
душно
1009.6 1009.2 +25.3 0.6
03 20.06 З 2 16 км мгла {туман} 9/3 540 м
[Cu med, cong Ac As Cs]
+33.0 +24.8 62 +46 +54 опасность
перегрева
1008.8 1008.4
06 20.06 С 2 16 км мгла {туман} 9/1 500 м
[Cb cap Ac As Cs]
+32.6 +25.4 66 +47 +54 опасность
перегрева
1007.1 1006.7
09 20.06 З 3 16 км мгла {туман} 9/3 540 м
[Cu med, cong Ac As Cs]
+31.4 +24.8 68 +45 +45 опасность
перегрева
1006.8 1006.4
12 20.06 З 3 14 км {туман} 8/3 540 м
[Cu hum Cs]
+29.6 +24.7 75 +42 +42 опасность
перегрева
1008.9 1008.5 +33.8
15 20.06 ЮВ 1 16 км 5/3 540 м
[Cu med, cong Cs]
+27.6 +25.0 86 +40 +40 очень
душно
1009.9 1009.5
18 20.06 ЮВ 1 9000 м в посл. час ливневой дождь 8/4 540 м
[Cu med, cong Cs]
+26.2 +24.6 91 +37 +37 очень
душно
1008.4 1008.0 0.6
21 20.06 В 1 14 км 8/3 540 м
[Cu med, cong Ac As]
+25.2 +24.1 94 +35 +35 очень
душно
1008.4 1008.0
00 21.06 Ю 2 16 км мгла {туман} 8/3 540 м
[Cu med, cong Ac As Cs]
+28.8 +24.6 78 +41 +44 опасность
перегрева
1009.2 1008.8 +24.9 0.6
03 21.06 З 2 16 км осадки на расстоянии {туман} 9/4 500 м
[Cb calv Cs]
+33.0 +24.2 60 +45 +55 опасность
перегрева
1009.1 1008.7
06 21.06 З 3 16 км в посл. час гроза {туман} 9/3 500 м
[Cb cap Ac As Cs]
+32.8 +25.2 64 +47 +52 опасность
перегрева
1007.3 1006.9
09 21.06 Ю 2 16 км мгла {туман} 8/3 540 м
[Cu med, cong Ac As Cs]
+30.8 +23.9 67 +42 +43 опасность
перегрева
1007.7 1007.3
12 21.06 ЮВ 1 14 км {туман} 8/3 540 м
[Cu hum Ac As]
+27.8 +24.1 80 +39 +39 очень
душно
1009.5 1009.1 +34.0
15 21.06 ЮВ 1 12 км 9/3 540 м
[Cu hum Ac As]
+26.7 +24.2 86 +37 +37 очень
душно
1009.8 1009.4
18 21.06 ЮВ 2 14 км 6/3 540 м
[Cu med, cong Ac trans]
+25.6 +23.7 89 +35 +35 очень
душно
1007.8 1007.4
21 21.06 ЮВ 1 16 км 5/1 540 м
[Cu med, cong Ac As]
+24.8 +23.4 92 +33 +33 очень
душно
1007.9 1007.5
00 22.06 ЮВ 1 18 км мгла {туман} 4/3 540 м
[Cu med, cong Ci fib]
+28.2 +25.0 83 +41 +46 опасность
перегрева
1008.6 1008.2 +24.2
03 22.06 С 3 18 км мгла {туман} 4/3 540 м
[Cu med, cong Ci fib]
+33.0 +24.8 62 +46 +57 опасность
перегрева
1008.5 1008.1
06 22.06 СЗ 3 18 км мгла {туман} 4/3 500 м
[Cb cap Cs]
+34.2 +24.7 58 +47 +56 опасность
перегрева
1006.3 1005.9
09 22.06 З 2 18 км мгла {туман} 8/3 500 м
[Cb cap Ac As Cs]
+33.4 +24.7 60 +46 +47 опасность
перегрева
1006.6 1006.2
12 22.06 Ю 1 16 км {туман} 8/1 540 м
[Cu hum Ac As]
+28.8 +24.0 75 +40 +40 очень
душно
1008.0 1007.6 +34.5
15 22.06 Ю 1 16 км 6/1 540 м
[Cu hum Ac As]
+27.4 +24.3 83 +38 +38 очень
душно
1008.5 1008.1
18 22.06 ЮВ 1 16 км 8/1 540 м
[Cu hum Ac trans]
+26.4 +24.3 88 +37 +37 очень
душно
1007.7 1007.3
21 22.06 Ю 1 16 км 8/1 540 м
[Cu med, cong Ac As]
+25.8 +24.2 91 +36 +36 очень
душно
1007.5 1007.1
00 23.06 ЮВ 1 18 км мгла {туман} 8/3 500 м
[Cb cap Cs]
+27.8 +24.9 84 +40 +45 очень
душно
1008.8 1008.4 +25.4
03 23.06 СЗ 2 18 км мгла {туман} 6/3 540 м
[Cu med, cong Ac As Cs]
+33.8 +23.6 55 +45 +56 опасность
перегрева
1008.7 1008.3
06 23.06 Ю 5 8000 м гроза, ливневой дождь 9/3 500 м
[Cb cap Ac As]
+28.8 +23.2 72 +39 +41 очень
душно
1008.0 1007.6 12
09 23.06 ЮВ 1 8000 м гроза, ливневой дождь 10/3 500 м
[Cb cap As op]
+26.0 +24.7 93 +37 +37 очень
душно
1008.3 1007.9 6
12 23.06 Ю 1 9000 м {гроза, ливн. осадки} 10/4 540 м
[Cu med, cong Ac As]
+25.7 +24.8 95 +36 +36 очень
душно
1010.0 1009.6 +35.0 6
15 23.06 Ю 1 12 км 8/3 540 м
[Cu med, cong Ac As]
+25.4 +24.3 94 +35 +35 очень
душно
1010.2 1009.8
18 23.06 Ю 1 12 км 6/3 540 м
[Cu med, cong Ac As]
+24.6 +23.5 94 +33 +33 очень
душно
1009.3 1008.9
21 23.06 Ю 1 12 км 8/3 540 м
[Cu med, cong Ac As]
+24.0 +22.9 94 +32 +32 очень
душно
1009.4 1009.0
00 24.06 Ю 1 18 км мгла {туман} 5/1 500 м
[Cb cap Cs]
+27.4 +25.0 87 +39 +46 очень
душно
1010.8 1010.4 +23.6 18
03 24.06 С 2 18 км мгла {туман} 8/3 540 м
[Cu med, cong Ac As Cs]
+33.2 +26.0 66 +49 +58 опасность
перегрева
1011.5 1011.1
06 24.06 З 3 14 км мгла {туман} 10/3 540 м
[Cu med, cong Ac As]
+30.8 +25.6 74 +45 +48 опасность
перегрева
1010.2 1009.8
09 24.06 З 6 7000 м ливневой дождь {туман} 10/3 500 м
[Cb cap Ac As]
+28.8 +25.1 80 +42 +42 опасность
перегрева
1011.3 1010.9 1
12 24.06 З 2 9000 м в посл. час ливневой дождь 10/5 540 м
[Cu med, cong Ac As]
+26.1 +24.6 91 +37 +37 очень
душно
1012.2 1011.8 +33.5 5
15 24.06 ЮВ 1 9000 м 9/3 540 м
[Cu med, cong Ac As]
+24.7 +23.8 95 +34 +34 очень
душно
1011.2 1010.8
18 24.06 ЮВ 1 9000 м 9/3 540 м
[Cu med, cong Ac As]
+24.2 +23.4 95 +32 +32 очень
душно
1010.0 1009.6
21 24.06 ЮВ 1 12 км 6/3 540 м
[Cu med, cong Ac As]
+23.6 +22.8 95 +31 +31 очень
душно
1010.5 1010.1
00 25.06 Ю 2 18 км мгла {туман} 5/1 500 м
[Cb cap Ac As Ci fib]
+27.2 +24.8 87 +39 +44 очень
душно
1011.7 1011.3 +23.4 5
03 25.06 З 2 18 км мгла {туман} 6/3 500 м
[Cb cap Ac As Cs]
+32.2 +25.1 66 +46 +57 опасность
перегрева
1011.4 1011.0
06 25.06 С 3 18 км мгла {туман} 5/1 500 м
[Cb cap Ac As Cs]
+32.8 +25.8 67 +48 +57 опасность
перегрева
1010.0 1009.6
09 25.06 СЗ 4 18 км мгла {туман} 8/3 540 м
[Cu med, cong Ac trans]
+31.6 +25.0 68 +45 +45 опасность
перегрева
1009.5 1009.1
12 25.06 З 2 16 км {туман} 8/3 540 м
[Cu med, cong Ac As]
+28.2 +25.4 85 +41 +41 опасность
перегрева
1011.5 1011.1 +33.3

 

Местоположение метеостанции Диполог (Филиппины): широта 8.60 долгота 123.35 высота над уровнем моря 5 м.

В архиве по умолчанию представлена погода в Дипологе за последнюю неделю. Архивные данные за месяц целиком и за предыдущие месяцы, начиная с января 2011 года, Вы можете получить, выбрав интересующий диапазон дат из раскрывающегося списка и нажав кнопку "Ввод!".


*Определитесь, кто Вы:
робот инопланетянин человек

Внимание! Время в таблицах - всемирное. Для получения местного времени необходимо прибавить поправку, которая равна 8 ч.

Смотрите также архив погоды в соседних городах и на ближайших метеорологических станциях:

Погода в Думагете (Филиппины) (78 км)
Погода в Кагаян-де-Оро (Филиппины) (104 км)
Погода в Тагбиларане (Филиппины) (124 км)
Погода в Котобато (Филиппины) (186 км)
Погода в Малайбалае (Филиппины) (197 км)
Погода в Мактане (Филиппины) (201 км)
Погода в Маасине (Филиппины) (235 км)
Погода в Замбоанге (Филиппины) (237 км)
Погода в Бутуане (Филиппины) (240 км)
Погода в Серигао Сити (Филиппины) (271 км)

Пояснения к столбцам:

Ветер - указаны скорость ветра в м/с - средняя за 10 мин, порывы в срок и между сроками (в фигурных скобках) и направление, откуда дует ветер: С - северный, СВ - северо-восточный, В - восточный, ЮВ - юго-восточный, Ю - южный, ЮЗ - юго-западный, З - западный, СЗ - северо-западный.
Видимость - горизонтальная дальность видимости в метрах или километрах. При видимости от 1 до 10 км при отсутствии осадков обычно наблюдается дымка, при ухудшении видимости до 1 км и менее - туман. В сухую погоду видимость может ухудшаться дымом, пылью или мглою.
Явления - указаны атмосферные явления, наблюдавшиеся в срок или в последний час перед сроком; фигурными скобками обозначены явления, наблюдавшиеся между сроками (за 1-3 часа до срока); квадратными скобками обозначены град или гололедные отложения с указанием их диаметра в мм.
Облачность - указаны через наклонную черту общая и нижняя облачность в баллах и высота нижней границы облаков в метрах; квадратными скобками обозначены формы облаков: Ci - перистые, Cs - перисто-слоистые, Cc - перисто-кучевые, Ac - высококучевые, As - высокослоистые, Sc - слоисто-кучевые, Ns - слоисто-дождевые, Cu - кучевые, Cb - кучево-дождевые. Подробнее классификацию облаков см. в Атласе облаков (PDF).
T - Температура воздуха - температура, измеренная на высоте 2 м над землей.
Td - Температура точки росы - температура, при понижении до которой содержащийся в воздухе водяной пар достигнет насыщения.
f - Относительная влажность воздуха - влажноcть воздуха, измеренная на высоте 2 м над землей.
Te - Эффективная температура - температура, которую ощущает одетый по сезону человек в тени. Характеристика душности погоды. При расчете учитывается влияние влажности воздуха и скорости ветра на теплоощущения человека.
Tes - Эффективная температура на солнце - температура, которую ощущает человек, с поправкой на солнечный нагрев. Характеристика знойности погоды. Зависит от высоты солнца над горизонтом, облачности и скорости ветра. Ночью, в пасмурную погоду, а также при ветре 12 м/с и более поправка равна нулю.
P - Атмосферное давление - приведенное к уровню моря атмосферное давление.
Po - Атмосферное давление - измеренное на уровне метеостанции атмосферное давление.
Tmin - Минимальная температура - минимум температуры воздуха на высоте 2 м над землей.
Tmax - Максимальная температура - максимум температуры воздуха на высоте 2 м над землей.
R - Количество осадков - Количество выпавших осадков за период времени, мм. При наведении курсора мыши на число - период времени, за который выпало указанное количество осадков.
R24 - Количество осадков - Количество выпавших осадков за 24 часа, мм.
S - Снежный покров - Высота снежного покрова, см. При наведении курсора мыши на число - состояние снежного покрова и степень покрытия местности в баллах.